Time-03,TemperatureF,Dew PointF,Humidity,Sea Level PressureIn,VisibilityMPH,Wind Direction,Wind SpeedMPH,Gust SpeedMPH,PrecipitationIn,Events,Conditions,WindDirDegrees,DateUTC
12:00 AM,71,65,76,29.94,6,ESE,19.6,,,,Scattered Clouds,110,2012-11-04 03:00:00
12:00 AM,71.6,64.4,78,29.92,6.2,ESE,19.6,-,N/A,,Partly Cloudy,110,2012-11-04 03:00:00
1:00 AM,69.8,62.6,78,29.95,-9999.0,ESE,19.6,-,N/A,,Clear,110,2012-11-04 04:00:00
2:00 AM,68.0,62.6,83,29.92,-9999.0,SSE,11.5,-,N/A,,Clear,160,2012-11-04 05:00:00
3:00 AM,67,61,75,29.94,6,SSE,11.5,,,,Clear,160,2012-11-04 06:00:00
3:00 AM,66.2,60.8,83,29.92,-9999.0,SSE,11.5,-,N/A,,Clear,160,2012-11-04 06:00:00
4:00 AM,66.2,60.8,83,29.92,-9999.0,SSE,11.5,-,N/A,,Clear,160,2012-11-04 07:00:00
5:00 AM,66.2,59.0,78,29.92,-9999.0,SSE,12.7,-,N/A,,Clear,160,2012-11-04 08:00:00
6:00 AM,65,58,71,29.95,6,SSE,13.8,,,,Scattered Clouds,160,2012-11-04 09:00:00
6:00 AM,64.4,57.2,77,29.95,-9999.0,SSE,13.8,-,N/A,,Clear,160,2012-11-04 09:00:00
7:00 AM,66.2,59.0,78,29.95,6.2,SSE,12.7,-,N/A,,Partly Cloudy,160,2012-11-04 10:00:00
8:00 AM,69.8,62.6,78,29.95,6.2,ESE,13.8,-,N/A,,Partly Cloudy,110,2012-11-04 11:00:00
9:00 AM,71,61,63,29.97,6,ESE,15.0,,,,Scattered Clouds,110,2012-11-04 12:00:00
9:00 AM,71.6,60.8,69,29.95,6.2,ESE,15.0,-,N/A,,Partly Cloudy,110,2012-11-04 12:00:00
10:00 AM,69.8,62.6,78,29.95,-9999.0,ESE,13.8,-,N/A,,Clear,110,2012-11-04 13:00:00
11:00 AM,71.6,62.6,73,29.95,-9999.0,ESE,13.8,-,N/A,,Clear,110,2012-11-04 14:00:00
12:00 PM,72,64,68,29.96,6,ESE,11.5,,,,Clear,110,2012-11-04 15:00:00
12:00 PM,71.6,64.4,78,29.95,-9999.0,ESE,11.5,-,N/A,,Clear,110,2012-11-04 15:00:00
1:00 PM,73.4,62.6,69,29.95,-9999.0,East,9.2,-,N/A,,Clear,90,2012-11-04 16:00:00
2:00 PM,73.4,64.4,73,29.92,-9999.0,East,8.1,-,N/A,,Clear,90,2012-11-04 17:00:00
3:00 PM,74,66,68,29.92,6,East,9.2,,,,Scattered Clouds,90,2012-11-04 18:00:00
3:00 PM,73.4,66.2,78,29.92,-9999.0,East,9.2,-,N/A,,Clear,90,2012-11-04 18:00:00
4:00 PM,75.2,64.4,69,29.89,-9999.0,East,9.2,-,N/A,,Clear,90,2012-11-04 19:00:00
5:00 PM,75.2,66.2,73,29.89,-9999.0,East,6.9,-,N/A,,Clear,90,2012-11-04 20:00:00
6:00 PM,74,63,60,29.88,6,East,8.1,,,,Clear,90,2012-11-04 21:00:00
6:00 PM,75.2,62.6,65,29.86,-9999.0,East,8.1,-,N/A,,Clear,90,2012-11-04 21:00:00
7:00 PM,73.4,62.6,69,29.86,6.2,East,9.2,-,N/A,,Partly Cloudy,90,2012-11-04 22:00:00
8:00 PM,71.6,62.6,73,29.89,6.2,East,10.4,-,N/A,,Partly Cloudy,90,2012-11-04 23:00:00
8:05 PM,71.6,62.6,73,29.89,6.2,East,10.4,-,N/A,Thunderstorm,Partly Cloudy,90,2012-11-04 23:05:00
9:00 PM,73,63,64,29.90,6,East,10.4,,,,Scattered Clouds,90,2012-11-05 00:00:00
9:00 PM,73.4,62.6,69,29.89,6.2,East,10.4,-,N/A,Thunderstorm,Scattered Clouds,90,2012-11-05 00:00:00
10:00 PM,73.4,64.4,73,29.89,6.2,East,10.4,-,N/A,,Scattered Clouds,90,2012-11-05 01:00:00
11:00 PM,73.4,64.4,73,29.92,-9999.0,East,9.2,-,N/A,,Clear,90,2012-11-05 02:00:00